• în România
  • Lista ţărilor
  • Pe 7 zile
  • Temperatura apei
  • Hartă satelitară
  • Meteo pe hartă
  • Widget-uri
  • user-avatar
    Intrare

    Meteo pe oră la Satif

    Astăzi, 28 Mai, Duminică

    Timp Temperatura Precipitaţii Vânt Presiune Umiditate
    00:00 +18°C° 0 mm 1 m/s 672 mmHg 72%
    01:00 +16°C° 0,2 mm 1 m/s 672 mmHg 73%
    02:00 +16°C° 0,2 mm 1 m/s 672 mmHg 73%
    03:00 +16°C° 0,2 mm 1 m/s 672 mmHg 74%
    04:00 +18°C° 0,1 mm 1 m/s 672 mmHg 70%
    05:00 +19°C° 0,1 mm 1 m/s 673 mmHg 65%
    06:00 +21°C° 0,1 mm 1 m/s 673 mmHg 60%
    07:00 +23°C° 0 mm 1 m/s 674 mmHg 52%
    08:00 +26°C° 0 mm 1 m/s 675 mmHg 44%
    09:00 +28°C° 0 mm 1 m/s 675 mmHg 36%
    10:00 +29°C° 0 mm 1 m/s 675 mmHg 33%
    11:00 +31°C° 0 mm 2 m/s 675 mmHg 31%
    12:00 +32°C° 0 mm 2 m/s 676 mmHg 28%
    13:00 +31°C° 0 mm 2 m/s 675 mmHg 29%
    14:00 +31°C° 0 mm 2 m/s 675 mmHg 30%
    15:00 +31°C° 0 mm 2 m/s 674 mmHg 30%
    16:00 +29°C° 0 mm 2 m/s 674 mmHg 37%
    17:00 +27°C° 0 mm 2 m/s 673 mmHg 43%
    18:00 +25°C° 0 mm 1 m/s 673 mmHg 49%
    19:00 +24°C° 0,2 mm 1 m/s 673 mmHg 53%
    20:00 +22°C° 0,2 mm 1 m/s 672 mmHg 57%
    21:00 +20°C° 0,2 mm 1 m/s 672 mmHg 62%
    22:00 +20°C° 0,1 mm 1 m/s 672 mmHg 62%
    23:00 +19°C° 0,1 mm 1 m/s 672 mmHg 62%

    Mâine, 29 Mai, Luni

    Timp Temperatura Precipitaţii Vânt Presiune Umiditate
    00:00 +18°C° 0,1 mm 2 m/s 672 mmHg 62%
    01:00 +18°C° 0 mm 2 m/s 671 mmHg 62%
    02:00 +17°C° 0 mm 2 m/s 671 mmHg 62%
    03:00 +17°C° 0 mm 2 m/s 671 mmHg 62%
    04:00 +18°C° 0 mm 2 m/s 671 mmHg 61%
    05:00 +18°C° 0 mm 2 m/s 671 mmHg 59%
    06:00 +19°C° 0 mm 2 m/s 672 mmHg 58%
    07:00 +21°C° 0 mm 2 m/s 672 mmHg 50%
    08:00 +25°C° 0 mm 2 m/s 673 mmHg 43%
    09:00 +27°C° 0 mm 2 m/s 674 mmHg 36%
    10:00 +28°C° 0 mm 2 m/s 674 mmHg 35%
    11:00 +28°C° 0 mm 3 m/s 674 mmHg 34%
    12:00 +29°C° 0 mm 3 m/s 674 mmHg 33%
    13:00 +29°C° 0 mm 3 m/s 673 mmHg 36%
    14:00 +28°C° 0 mm 2 m/s 673 mmHg 38%
    15:00 +28°C° 0 mm 2 m/s 673 mmHg 41%
    16:00 +26°C° 0,1 mm 2 m/s 672 mmHg 47%
    17:00 +25°C° 0,1 mm 1 m/s 672 mmHg 54%
    18:00 +23°C° 0,1 mm 1 m/s 672 mmHg 61%
    19:00 +22°C° 0 mm 1 m/s 672 mmHg 65%
    20:00 +21°C° 0 mm 1 m/s 672 mmHg 69%
    21:00 +19°C° 0 mm 1 m/s 672 mmHg 74%
    22:00 +19°C° 0,1 mm 1 m/s 672 mmHg 74%
    23:00 +18°C° 0,1 mm 1 m/s 671 mmHg 74%

    Poimâine, 30 Mai, Marţi

    Timp Temperatura Precipitaţii Vânt Presiune Umiditate
    00:00 +18°C° 0,1 mm 1 m/s 671 mmHg 75%
    01:00 +18°C° 0,2 mm 1 m/s 671 mmHg 74%
    02:00 +16°C° 0,2 mm 1 m/s 671 mmHg 74%
    03:00 +16°C° 0,2 mm 1 m/s 671 mmHg 73%
    04:00 +16°C° 0,2 mm 1 m/s 672 mmHg 73%
    05:00 +18°C° 0,2 mm 1 m/s 672 mmHg 72%
    06:00 +18°C° 0,2 mm 1 m/s 672 mmHg 71%
    07:00 +19°C° 0,2 mm 1 m/s 673 mmHg 67%
    08:00 +20°C° 0,2 mm 1 m/s 673 mmHg 64%
    09:00 +21°C° 0,2 mm 1 m/s 674 mmHg 60%
    10:00 +21°C° 0,4 mm 1 m/s 674 mmHg 60%
    11:00 +21°C° 0,4 mm 1 m/s 674 mmHg 61%
    12:00 +21°C° 0,4 mm 1 m/s 674 mmHg 61%
    13:00 +21°C° 0,6 mm 1 m/s 674 mmHg 65%
    14:00 +20°C° 0,6 mm 1 m/s 674 mmHg 69%
    15:00 +20°C° 0,6 mm 1 m/s 673 mmHg 72%
    16:00 +19°C° 0,2 mm 1 m/s 673 mmHg 74%
    17:00 +19°C° 0,2 mm 1 m/s 673 mmHg 75%
    18:00 +19°C° 0,2 mm 1 m/s 673 mmHg 77%
    19:00 +18°C° 0 mm 1 m/s 673 mmHg 80%
    20:00 +16°C° 0 mm 1 m/s 673 mmHg 83%
    21:00 +15°C° 0 mm 1 m/s 673 mmHg 86%
    22:00 +15°C° 0 mm 1 m/s 673 mmHg 87%
    23:00 +15°C° 0 mm 1 m/s 673 mmHg 88%

    31 Mai, Miercuri

    Timp Temperatura Precipitaţii Vânt Presiune Umiditate
    00:00 +14°C° 0 mm 1 m/s 673 mmHg 88%
    01:00 +14°C° 0 mm 1 m/s 672 mmHg 88%
    02:00 +14°C° 0 mm 1 m/s 672 mmHg 88%
    03:00 +13°C° 0 mm 1 m/s 672 mmHg 88%
    04:00 +15°C° 0,1 mm 1 m/s 673 mmHg 82%
    05:00 +16°C° 0,1 mm 1 m/s 673 mmHg 77%
    06:00 +18°C° 0,1 mm 1 m/s 674 mmHg 71%
    07:00 +20°C° 0 mm 1 m/s 674 mmHg 62%
    08:00 +23°C° 0 mm 1 m/s 675 mmHg 52%
    09:00 +25°C° 0 mm 1 m/s 676 mmHg 43%
    10:00 +26°C° 0,2 mm 1 m/s 676 mmHg 41%
    11:00 +27°C° 0,2 mm 1 m/s 676 mmHg 39%
    12:00 +27°C° 0,2 mm 2 m/s 676 mmHg 38%
    13:00 +27°C° 0,2 mm 2 m/s 675 mmHg 40%
    14:00 +26°C° 0,2 mm 2 m/s 675 mmHg 41%
    15:00 +26°C° 0,2 mm 2 m/s 675 mmHg 43%
    16:00 +24°C° 0,2 mm 2 m/s 674 mmHg 50%
    17:00 +23°C° 0,2 mm 1 m/s 674 mmHg 58%
    18:00 +22°C° 0,2 mm 1 m/s 674 mmHg 65%
    19:00 +21°C° 0,1 mm 1 m/s 674 mmHg 68%
    20:00 +20°C° 0,1 mm 1 m/s 674 mmHg 71%
    21:00 +19°C° 0,1 mm 1 m/s 674 mmHg 74%
    22:00 +19°C° 0 mm 1 m/s 674 mmHg 75%
    23:00 +16°C° 0 mm 0 m/s 674 mmHg 76%

    1 Iunie, Joi

    Timp Temperatura Precipitaţii Vânt Presiune Umiditate
    00:00 +16°C° 0 mm 0 m/s 673 mmHg 77%
    01:00 +15°C° 0 mm 0 m/s 673 mmHg 79%
    02:00 +15°C° 0 mm 0 m/s 672 mmHg 80%
    03:00 +14°C° 0 mm 0 m/s 672 mmHg 81%
    04:00 +16°C° 0 mm 0 m/s 673 mmHg 75%
    05:00 +17°C° 0 mm 0 m/s 673 mmHg 69%
    06:00 +19°C° 0 mm 0 m/s 674 mmHg 62%
    07:00 +21°C° 0,2 mm 0 m/s 675 mmHg 54%
    08:00 +23°C° 0,2 mm 0 m/s 675 mmHg 46%
    09:00 +26°C° 0,2 mm 0 m/s 676 mmHg 38%
    10:00 +28°C° 0,2 mm 1 m/s 676 mmHg 35%
    11:00 +29°C° 0,2 mm 1 m/s 676 mmHg 32%
    12:00 +30°C° 0,2 mm 2 m/s 676 mmHg 30%
    13:00 +29°C° 0,1 mm 2 m/s 675 mmHg 33%
    14:00 +28°C° 0,1 mm 2 m/s 675 mmHg 36%
    15:00 +27°C° 0,1 mm 2 m/s 675 mmHg 39%
    16:00 +26°C° 0 mm 2 m/s 674 mmHg 45%
    17:00 +25°C° 0 mm 2 m/s 674 mmHg 51%
    18:00 +24°C° 0 mm 1 m/s 674 mmHg 56%
    19:00 +22°C° 0,2 mm 1 m/s 674 mmHg 64%
    20:00 +20°C° 0,2 mm 1 m/s 674 mmHg 71%
    21:00 +19°C° 0,2 mm 1 m/s 674 mmHg 78%
    22:00 +18°C° 0,3 mm 1 m/s 673 mmHg 80%
    23:00 +18°C° 0,3 mm 1 m/s 673 mmHg 82%

    2 Iunie, Vineri

    Timp Temperatura Precipitaţii Vânt Presiune Umiditate
    00:00 +16°C° 0,3 mm 1 m/s 673 mmHg 84%
    01:00 +16°C° 0,1 mm 1 m/s 673 mmHg 84%
    02:00 +16°C° 0,1 mm 1 m/s 673 mmHg 84%
    03:00 +15°C° 0,1 mm 1 m/s 672 mmHg 85%
    04:00 +18°C° 0 mm 1 m/s 673 mmHg 78%
    05:00 +17°C° 0 mm 0 m/s 673 mmHg 72%
    06:00 +19°C° 0 mm 0 m/s 674 mmHg 66%
    07:00 +23°C° 0 mm 1 m/s 675 mmHg 58%
    08:00 +25°C° 0 mm 1 m/s 675 mmHg 50%
    09:00 +27°C° 0 mm 1 m/s 676 mmHg 42%
    10:00 +28°C° 0,2 mm 2 m/s 676 mmHg 39%
    11:00 +29°C° 0,2 mm 2 m/s 676 mmHg 37%
    12:00 +29°C° 0,2 mm 3 m/s 676 mmHg 34%
    13:00 +29°C° 0,1 mm 3 m/s 675 mmHg 36%
    14:00 +28°C° 0,1 mm 2 m/s 675 mmHg 38%
    15:00 +28°C° 0,1 mm 2 m/s 675 mmHg 40%
    16:00 +27°C° 0,1 mm 2 m/s 674 mmHg 46%
    17:00 +25°C° 0,1 mm 2 m/s 674 mmHg 51%
    18:00 +24°C° 0,1 mm 2 m/s 674 mmHg 57%
    19:00 +22°C° 0 mm 1 m/s 674 mmHg 64%
    20:00 +21°C° 0 mm 1 m/s 674 mmHg 72%
    21:00 +19°C° 0 mm 1 m/s 674 mmHg 80%
    22:00 +18°C° 0 mm 1 m/s 673 mmHg 81%
    23:00 +18°C° 0 mm 1 m/s 673 mmHg 82%
    Arată mai mult